Regional Weather Roundup
Issued by NWS

Home | Current Version | Previous Version | Text Only | Print | Product List | Glossary On
Versions: 1 2 3 4 5 6 7 8 9 10 11 12 13 14 15 16 17 18 19 20 21 22 23 24 25 26 27 28 29 30 31 32 33 34 35 36 37 38 39 40 41 42 43 44 45 46 47 48 49 50
000
ASUS43 KMPX 010201
RWRMN
WEATHER ROUNDUP FOR MINNESOTA
NATIONAL WEATHER SERVICE TWIN CITIES/CHANHASSEN MN
800 PM CST SAT FEB 28 2015


NOTE: "FAIR" INDICATES FEW OR NO CLOUDS BELOW 12,000 FEET WITH NO
SIGNIFICANT WEATHER AND/OR OBSTRUCTIONS TO VISIBILITY. N/A MEANS
CURRENT SKY AND/OR WEATHER CONDITIONS ARE NOT AVAILABLE.

MNZ060>063-068>070-010300-
   Twin Cities Metro

CITY           SKY/WX    TMP DP  RH WIND       PRES   REMARKS
TWIN CITIES    MOCLDY    13   2  61 S10       30.36F WCI   0
ST PAUL        CLOUDY    13   3  64 S9G20     30.38F WCI   1
CRYSTAL        CLOUDY    16   4  59 S10       30.34S WCI   4
BLAINE         CLOUDY    16   7  67 S9        30.34F WCI   4
LAKEVILLE      CLOUDY    10   3  72 S7        30.35F WCI   0
EDEN PRAIRIE   CLOUDY    13   3  64 S14       30.34F WCI  -2
SOUTH ST PAUL  CLOUDY    13   4  64 S9        30.37S WCI   1
LAKE ELMO      MOCLDY    12   5  73 S9        30.37F WCI   0
$$
MNZ001>005-007-008-013>017-022>024-027-028-010300-
   Northwest Minnesota

CITY           SKY/WX    TMP DP  RH WIND       PRES   REMARKS
BEMIDJI        LGT SNOW  17  13  84 S9        30.12S WCI   6
HALLOCK        PTCLDY    12   7  79 W10       30.11R WCI  -1
ROSEAU         LGT SNOW  19  16  86 SW12      30.07S WCI   7
WARROAD        LGT SNOW  19  16  86 SW14G21   30.07S WCI   6
THIEF RVR FALL CLOUDY    19  16  86 SW12      30.10S WCI   7
CROOKSTON      CLOUDY    18  12  79 W17       30.15R WCI   2
FOSSTON        LGT SNOW  18  16  93 S18       30.11F WCI   2
DETROIT LAKES  LGT SNOW  21  18  86 S12       30.14S WCI   9
MOORHEAD       LGT SNOW  23  23 100 W14       30.17R WCI  11
PARK RAPIDS    LGT SNOW  18  13  80 S13       30.14F WCI   5
MAHNOMEN       LGT SNOW  19  17  90 S15       30.13S WCI   5
$$
MNZ006-009>011-018-025>026-010300-
   North Central Minnesota

CITY           SKY/WX    TMP DP  RH WIND       PRES   REMARKS
BAUDETTE       LGT SNOW  20  16  84 S13       30.07S FOG     WCI   7
FLAG ISLAND    LGT SNOW  19  18  93 S8        30.04F WCI   9
INTL FALLS     MOCLDY    20   4  50 SW15G22   30.11F WCI   6
WASKISH        CLOUDY    19  14  79 CALM      30.11F
BIG FORK       CLOUDY    18   7  62 S10G17    30.14F WCI   6
LONGVILLE      FLURRIES  16  10  79 S7        30.18F WCI   6
GRAND RAPIDS   CLOUDY    16   7  67 S16       30.17F WCI   0
CRANE LAKE     MOCLDY    18   0  45 S7G18     30.18S WCI   8
ORR            CLOUDY    18   1  49 S12G20    30.14S WCI   5
COOK           MOCLDY    18   3  53 S14G20    30.18S WCI   4
WALKER         LGT SNOW  17  13  83 S8        30.15S WCI   6
$$
MNZ012-019>021-037-010300-
   Northeast Minnesota

CITY           SKY/WX    TMP DP  RH WIND       PRES   REMARKS
DULUTH         MOCLDY    16   2  54 S10       30.23S WCI   4
ELY            PTCLDY    16   0  48 S12G17    30.17F WCI   3
HIBBING        CLOUDY    17   3  54 S10G18    30.19S WCI   5
EVELETH        PTCLDY    18   3  53 SW13G21   30.20S WCI   4
DULUTH HARBOR  CLOUDY    19   5  53 S20       30.31S WCI   4
SILVER BAY     CLOUDY    19   5  53 S13G20    30.23S WCI   7
GRAND MARAIS     N/A     23   8  52 SW24      30.27F WCI   7
G MARAIS ARPRT MOCLDY    14   1  57 S9        30.17F WCI   2
$$
MNZ029>031-032-039>041-046>048-054>057-064-010300-
   West Central Minnesota

CITY           SKY/WX    TMP DP  RH WIND       PRES   REMARKS
FERGUS FALLS   LGT SNOW  19  14  79 S14       30.21F WCI   6
MORRIS         CLOUDY    19  14  79 SE10      30.19F WCI   8
ALEXANDRIA     CLOUDY    18  13  80 S13       30.19F WCI   5
ELBOW LAKE     CLOUDY    17  13  84 S14       30.18F WCI   3
WADENA         FLURRIES  16  10  79 S7        30.17F WCI   6
APPLETON       CLOUDY    21  16  79 S13G20    30.21F WCI   9
BENSON         CLOUDY    19  12  73 S12       30.22F WCI   7
ORTONVILLE     CLOUDY    19  14  79 SE8       30.19S WCI   9
MADISON        CLOUDY    19  14  79 SE13      30.21F WCI   7
WILLMAR        MOCLDY    18  10  73 S9        30.26F WCI   6
$$
MNZ033>034-036-042>043-049>051-058-059-010300-
   Central Minnesota

CITY           SKY/WX    TMP DP  RH WIND       PRES   REMARKS
ST CLOUD       CLOUDY    16   7  67 S10       30.28F WCI   4
SAUK CENTRE    LGT SNOW  17  13  85 SE10      30.22F WCI   4
PAYNESVILLE    LGT SNOW  15  10  83 SE8       30.25F WCI   3
PINE RIVER     CLOUDY    16  10  79 S9        30.22F WCI   4
BRAINERD       CLOUDY    15   8  73 S13       30.22F WCI   1
STAPLES        LGT SNOW  16  10  79 S12       30.20S WCI   3
LONG PRAIRIE   LGT SNOW  16  12  86 SE13      30.21F WCI   2
LITTLE FALLS   FLURRIES  18   9  68 S9G17     30.25F WCI   6
LITCHFIELD     CLOUDY    18  12  79 S5        30.28S WCI  11
MAPLE LAKE     CLOUDY    16  10  77 SE9       30.30F WCI   4
$$
MNZ037-044-045-052-053-010300-
   East Central Minnesota

CITY           SKY/WX    TMP DP  RH WIND       PRES   REMARKS
PRINCETON      CLOUDY    16   7  67 S12       30.30S WCI   3
MORA           CLOUDY    18   5  57 S12G18    30.31S WCI   5
CAMBRIDGE      CLOUDY    16   5  62 S8        30.31S WCI   5
RUSH CITY      CLOUDY    14   3  63 S10G17    30.33F WCI   1
MOOSE LAKE     MOCLDY    16   3  57 S10G16    30.26S WCI   3
HINCKLEY       CLOUDY    16   5  62 S15       30.30F WCI   1
CLOQUET        CLOUDY    14   1  57 S12       30.24F WCI   0
MCGREGOR       CLOUDY    18   9  68 S9        30.23F WCI   6
$$
MNZ071>073-080-081-089-090-097-098-010300-
   Southwest Minnesota

CITY           SKY/WX    TMP DP  RH WIND       PRES   REMARKS
MONTEVIDEO     MOCLDY    18  14  86 S10       30.24F WCI   6
GRANITE FALLS  CLEAR     16  11  82 SE12      30.26F WCI   3
CANBY          PTCLDY    17  12  83 SE9       30.20F WCI   5
MARSHALL       CLEAR     18  10  73 S13       30.24F WCI   4
REDWOOD FALLS  PTCLDY    16  10  77 S12       30.27F WCI   3
OLIVIA         PTCLDY    16  12  86 S9        30.26F WCI   4
PIPESTONE      CLEAR     18  12  79 S13       30.19F WCI   4
WINDOM         CLEAR     16  12  86 S8        30.26S WCI   5
WORTHINGTON    CLEAR     28   9  43 S14       30.26S WCI  17
JACKSON        MOCLDY    18  12  79 S10       30.28S WCI   6
TRACY          CLEAR     18  13  79 S13G18    30.23S WCI   5
SLAYTON        CLEAR     13   9  83 SE8       30.23S WCI   2
$$
MNZ065>067-074>077-082>085-091>093-010300-
   South Central Minnesota

CITY           SKY/WX    TMP DP  RH WIND       PRES   REMARKS
MANKATO        CLOUDY    12   3  67 S9G16     30.34S WCI   0
NEW ULM        CLOUDY    16  10  79 S14       30.29F WCI   1
ST JAMES       MOCLDY    18  12  79 SE10      30.31F WCI   6
FAIRMONT       CLOUDY    16  10  79 SE12      30.30F WCI   3
GLENCOE        CLOUDY    16  11  80 SE8       30.30F WCI   5
FARIBAULT      CLOUDY    12   3  67 S10G16    30.35F WCI  -1
OWATONNA       CLOUDY    12   3  67 SE14      30.34F WCI  -3
ALBERT LEA     CLOUDY    10   5  79 S7        30.35S WCI   0
$$
MNZ078>079-086>088-094>096-010300-
   Southeast Minnesota

CITY           SKY/WX    TMP DP  RH WIND       PRES   REMARKS
ROCHESTER      CLOUDY    11   2  67 S13       30.35F WCI  -4
RED WING       PTCLDY    12   0  57 S5        30.39S WCI   4
STANTON        CLOUDY    12   3  67 S10       30.35F WCI  -1
DODGE CENTER   PTCLDY     7   1  78 S10       30.35S WCI  -8
WINONA         CLOUDY    18   3  53 S5        30.43F WCI  11
AUSTIN         PTCLDY    10   3  72 S7        30.36S WCI   0
PRESTON        CLOUDY    12   2  65 S12       30.37F WCI  -2
$$
ABBREVIATIONS USED IN REMARKS
   TC - TEMPERATURES IN CELSIUS
  WCI - WIND CHILL INDEX
   HX - HEAT INDEX
  VSB - VISIBILITY
$$



USA.gov is the U.S. government's official web portal to all federal, state and local government web resources and services.